Location: Newark
(13.6797°N, 8.5297°E)
Time: 05:00:11
(UTC+00:00)

Courier 1B Rocket - Pass Details

Date: 24 January 2020
Orbit: 920 x 1202 km, 28.2° (Epoch: 19 February)

Event Time Altitude Azimuth Distance (km) Brightness Sun altitude
Rises 09:53:21 0° 254° (WSW) 4,035 8.1 48.2°
Reaches altitude 10° 09:56:17 10° 258° (WSW) 3,042 7.5 48.6°
Maximum altitude 10:03:40 59° 336° (NNW) 1,248 5.9 49.7°
Drops below altitude 10° 10:10:34 10° 55° (NE) 2,841 7.6 50.7°
Sets 10:13:14 0° 59° (ENE) 3,752 8.1 51.0°
